Observations

BIA Manual Entry


Date Temp Humidity Rainfall Dew Point Wind Direction Wind Speed Wind Pressure Condition Visibility
2025-04-19 13:00:00 33 61 0.00 24 020 11.4 1009 Partly Cloudy (Day) 20 km
2025-04-19 12:01:49 32 61 0.00 24 010 17.1 1009 Partly Cloudy (Day) 20 KM
2025-04-19 11:01:22 33 62 0.0 24 090 7.6 1010 Partly Cloudy (Day) 10 km
2025-04-19 10:00:55 31 65 0.00 24 080 7.6 1010 Partly Cloudy (Day) 10 Km
2025-04-19 09:01:32 30 72 0.00 25 140 7.6 1011 Partly Cloudy (Day) 10 km
2025-04-19 07:59:09 28 86 0.0 25 200 7.6 1010 Partly Cloudy (Day) 15 KM
2025-04-19 06:56:48 26 94 0.0 25 190 3.8 1009 Partly Cloudy (Day) 15 KM
2025-04-19 05:57:47 26 95 0.0 25 210 3.8 1009 Partly Cloudy (Day) 10 KM
2025-04-19 05:00:15 26 95 0.0 25 260 3.8 1008 Partly Cloudy (Night) 10 KM
2025-04-19 03:57:31 26 95 0.0 25 280 3.8 1008 Partly Cloudy (Night) 10 KM
2025-04-19 03:00:45 26 93 0.0 25 210 5.7 1008 Partly Cloudy (Night) 10 KM
2025-04-19 01:59:54 27 91 25 160 1.9 1008 Partly Cloudy (Night) 10 KM
2025-04-19 00:58:47 27 91 25 140 5.7 1009 Partly Cloudy (Night) 10 KM
2025-04-19 00:00:30 27 89 25 180 5.7 1009 Cloudy 10 KM
2025-04-18 23:00:03 28 87 25 150 5.7 1009 Night Shower 10 KM
2025-04-18 21:59:17 28 85 25 100 1.9 1009 Partly Cloudy (Night) 10 KM
2025-04-18 21:01:10 29 82 0.00 25 010 3.8 1009 Lightning 10 km
2025-04-18 20:05:03 30 77 0.00 25 020 5.7 1009 Lightning 10 km
2025-04-18 19:02:21 30 76 0.00 25 010 5.7 1008 Lightning 10 km
2025-04-18 19:01:59 30 75 0.00 25 330 9.5 1007 Thunderstorm 10 km
2025-04-18 17:00:13 30 76 0.00 25 310 20.9 1007 Partly Cloudy (Day) 10 km
2025-04-18 15:58:31 31 67 0.00 25 320 20.9 1007 Partly Cloudy (Day) 15 km
2025-04-18 14:59:14 32 68 0.00 25 300 17.1 1008 Partly Cloudy (Day) 15 km
2025-04-18 14:01:05 32 67 0.00 25 310 17.1 1008 Partly Cloudy (Day) 15 km
2025-04-18 13:00:22 32 69 0.00 26 310 17.1 1009 Partly Cloudy (Day) 20